Location: Hylvaty SDH
(49.9612°N, 16.4057°E)
Time: 21:09:09
(UTC+01:00)

Vanguard 1 Rocket - Pass Details

Date: 11 October 2020
Orbit: 656 x 4221 km, 34.3° (Epoch: 30 October)

Event Time Altitude Azimuth Distance (km) Brightness Sun altitude
Rises 22:09:42 0° 268° (W) 5,837 12.1 -37.1°
Reaches altitude 10° 22:14:45 10° 252° (WSW) 5,408 11.6 -37.7°
Maximum altitude 22:25:10 19° 214° (SW) 5,603 11.2 -38.9°
Enters shadow 22:32:50 16° 191° (SSW) 6,402 11.4 -39.8°
Drops below altitude 10° 22:38:50 10° 178° (S) 7,197 - -40.4°
Sets 22:47:45 0° 165° (SSE) 8,441 - -41.4°
